Theta_e
298 294 292 291 294 293 291 289 294 300 299 298 297 295 292 291 290 291 291 293 293 294 291 292 293 292 292 293 294 295 296 296 296 294 294 296 298 300 300 300 300 305 307 303 301 300 300 300 299 298 298 297 296 296 296 296 297 297 298 298 298 299 298 298 297 297 296 295 296 296 295 294 295 296 297 297 297 297 297 297 297 297 296 297 298 298
300 292 288 288 288 289 287 287 295 299 300 298 296 294 293 294 290 291 292 293 294 294 290 293 293 292 293 294 294 295 293 293 295 294 295 297 299 300 299 299 300 301 301 300 300 300 299 299 299 298 297 297 296 296 295 295 296 297 297 297 298 298 297 297 297 297 296 296 295 295 295 295 295 296 296 296 296 297 297 296 296 297 297 297 298 297
292 289 290 289 289 289 287 288 300 299 297 298 295 294 292 290 292 294 294 295 294 296 290 292 292 292 293 295 295 293 293 295 296 297 298 299 300 300 300 300 300 300 300 301 300 300 300 300 299 298 298 297 297 297 297 297 297 297 297 297 298 298 298 298 298 297 296 297 298 296 296 296 295 297 297 297 297 296 296 296 296 296 296 297 297 297
286 288 289 291 289 293 293 298 299 298 298 296 294 292 289 292 293 288 293 295 295 296 293 294 293 292 295 295 295 296 295 296 297 297 298 300 301 302 301 300 300 300 301 300 301 300 300 300 300 299 298 298 298 297 297 296 296 296 297 297 297 298 298 298 298 298 298 297 298 298 297 298 296 296 297 298 297 296 296 297 296 296 296 296 297 297
287 290 290 291 293 297 295 297 296 295 292 291 296 294 291 293 294 293 291 294 296 295 297 295 294 293 294 293 295 296 296 296 297 297 297 298 299 301 300 299 299 299 300 301 301 300 300 299 299 299 300 299 298 298 298 299 297 296 297 298 298 298 298 298 298 298 299 299 298 297 298 297 297 297 296 296 296 296 296 296 296 295 296 296 296 296
290 289 290 292 295 297 296 293 292 295 291 292 290 291 295 296 294 293 294 294 295 293 292 290 291 292 294 295 296 298 295 296 298 296 297 298 298 298 298 298 299 299 300 300 301 301 301 301 301 300 299 299 300 299 300 299 298 297 298 298 297 297 298 297 298 298 297 296 296 295 295 295 295 295 296 295 294 294 295 294 295 295 295 296 296 296
289 293 291 294 293 291 295 293 288 291 292 291 290 292 296 297 296 294 294 296 290 289 291 288 290 289 291 292 295 297 297 298 301 300 301 300 300 299 299 300 300 300 300 300 300 300 300 301 300 300 300 301 300 300 299 298 297 297 297 297 296 297 298 298 297 297 296 296 296 295 295 295 295 294 296 295 295 295 295 295 294 295 296 296 295 295
290 289 290 293 292 292 293 291 292 291 294 289 292 295 297 296 293 294 296 296 290 291 290 290 290 289 290 291 294 297 297 297 298 300 301 302 301 300 300 301 302 301 300 300 300 300 301 301 301 300 301 299 299 300 299 297 296 296 296 296 296 297 297 298 297 296 297 296 296 296 296 296 295 295 295 295 295 295 295 294 294 295 295 295 295 295
285 286 287 290 290 293 290 287 288 290 293 291 292 297 296 294 294 296 296 293 292 292 289 292 289 289 289 290 291 293 293 295 296 298 300 301 302 301 300 301 301 301 300 300 301 301 301 301 301 299 299 300 299 299 298 297 296 296 296 296 297 297 297 296 296 297 297 297 297 297 296 296 297 295 296 295 295 294 294 295 295 295 295 295 294 294
285 286 284 285 288 288 287 288 288 290 292 291 294 295 294 295 295 296 294 292 290 290 286 287 286 286 288 290 291 292 292 294 296 299 300 302 302 302 300 300 300 300 299 299 298 298 299 299 299 299 298 298 298 296 295 296 296 296 296 296 296 296 295 296 296 296 296 296 296 296 296 295 295 296 295 295 295 295 295 295 295 295 294 294 293 293
287 288 286 286 286 288 288 287 288 290 295 295 294 293 292 293 292 292 292 292 289 285 285 285 285 284 284 290 292 291 293 296 296 297 299 301 303 304 303 303 302 301 301 300 299 298 298 298 298 297 296 297 296 296 296 297 297 296 296 295 295 295 296 295 296 295 295 295 294 295 295 295 295 295 294 295 295 295 295 295 294 294 294 293 293 293
288 286 287 286 287 285 289 293 293 297 295 295 294 293 292 289 293 291 289 289 285 282 283 284 283 284 282 287 291 295 293 293 295 296 295 296 298 299 298 297 296 295 296 298 299 299 299 298 298 297 296 296 296 296 297 296 295 295 295 295 295 295 295 295 295 295 295 295 296 295 295 295 295 293 294 294 294 294 294 294 293 293 293 292 293 292
286 285 287 288 288 289 293 292 291 294 294 295 295 294 287 283 285 281 285 281 282 281 283 284 284 283 284 290 292 293 294 294 295 296 295 293 293 293 293 293 294 294 293 295 297 298 298 298 298 296 296 295 296 296 295 294 295 295 295 295 296 296 296 295 296 296 296 296 296 296 295 295 294 294 294 294 294 294 294 293 292 292 291 291 291 290
284 289 287 287 289 292 291 289 287 289 292 294 292 290 285 281 279 277 278 278 279 280 283 284 285 282 288 290 291 291 291 291 290 291 292 292 292 292 292 292 292 293 293 294 296 296 296 296 295 294 295 294 294 294 294 294 295 296 296 296 298 296 296 296 297 297 297 296 296 295 295 295 294 294 295 294 294 294 293 293 292 291 290 290 290 289
279 282 285 285 287 288 289 290 290 291 291 290 290 288 287 284 281 276 278 277 279 280 282 284 280 282 284 286 289 290 290 289 289 288 290 290 291 292 292 292 292 292 292 293 294 294 294 294 294 294 294 294 295 296 297 297 297 298 297 297 298 297 297 297 297 297 297 296 295 295 295 295 295 295 295 294 294 293 292 292 291 290 290 289 289 288
279 281 286 288 286 285 288 288 290 293 291 291 289 290 287 283 285 281 280 279 278 280 279 281 282 285 287 289 290 288 288 288 288 290 291 292 292 292 292 292 292 292 292 293 294 294 294 294 294 294 295 296 297 297 298 297 298 299 298 298 298 298 297 297 297 297 296 296 296 296 295 295 295 295 294 293 292 292 291 291 290 289 288 288 287 286
282 281 287 288 287 287 287 288 287 288 286 289 289 285 285 286 284 277 277 277 276 279 280 284 283 287 291 288 287 288 288 288 289 290 291 292 292 292 292 292 292 292 293 294 294 294 294 295 295 296 296 296 296 297 297 297 297 298 298 298 298 297 297 297 297 296 296 296 295 295 295 295 294 293 292 291 290 290 290 290 289 288 287 287 286 285
283 280 287 288 287 287 286 287 288 288 290 290 285 285 287 285 284 283 279 278 279 277 279 280 281 284 284 284 286 287 287 287 289 289 290 291 291 292 293 292 293 293 292 292 292 293 293 293 294 294 294 295 295 295 296 296 296 296 297 298 298 298 297 297 297 296 296 295 294 294 293 293 292 292 291 291 290 290 289 288 288 287 286 285 285 284
288 281 286 287 286 289 289 288 292 292 291 290 288 288 284 282 281 282 282 273 274 273 277 279 279 280 283 286 286 286 287 288 288 289 289 291 292 293 292 292 292 292 293 292 292 293 293 293 293 294 294 294 294 294 295 295 295 296 296 296 297 297 296 296 296 295 295 295 294 294 292 291 291 291 290 289 289 288 287 286 286 285 284 284 284 283
287 283 283 288 288 289 290 290 285 286 289 289 288 286 283 286 283 282 281 281 281 275 273 277 278 282 286 288 288 289 289 290 289 289 290 292 293 292 292 293 292 292 292 291 292 292 293 293 292 293 293 294 294 295 295 294 295 295 295 296 296 295 295 295 295 295 293 293 293 291 291 290 290 289 289 288 288 286 286 285 284 284 283 283 283 283
286 286 281 287 292 290 286 282 283 283 285 286 287 285 284 282 282 282 280 280 280 278 276 277 278 283 287 288 287 287 286 290 290 290 292 292 292 292 292 292 292 291 291 291 291 292 292 292 292 292 292 293 293 293 294 295 295 294 295 295 295 296 295 295 294 294 293 293 292 291 290 289 289 288 287 286 286 285 284 284 283 283 283 283 282 282
287 287 283 286 286 284 281 280 279 279 280 282 283 284 284 283 281 279 277 276 275 279 274 275 277 285 286 284 286 286 286 285 288 290 292 292 291 291 291 290 291 290 290 291 291 291 292 292 292 292 292 292 293 294 294 294 294 294 294 295 295 295 295 294 293 293 292 292 291 290 289 288 287 287 286 285 285 284 283 283 282 282 282 282 282 281
287 287 286 281 280 281 279 279 279 277 279 281 281 282 281 281 283 282 277 276 276 275 274 278 276 282 285 285 285 286 286 286 286 288 290 291 291 290 290 290 290 291 291 291 291 291 291 292 292 292 292 292 292 293 292 293 293 293 293 294 294 294 293 293 292 292 291 291 290 288 288 287 286 286 285 284 283 282 282 282 282 282 281 281 281 281
287 286 280 279 281 279 279 280 278 275 278 281 281 279 280 284 282 283 282 282 280 272 277 277 275 283 285 285 285 285 285 285 286 286 289 290 289 289 290 290 290 290 290 290 290 290 291 291 291 291 292 292 292 292 292 292 292 293 293 293 293 293 292 291 291 291 290 289 288 288 287 286 285 285 284 283 282 281 281 281 281 282 281 280 280 280
285 283 284 280 281 283 282 280 281 278 278 281 282 280 278 279 279 277 277 276 280 276 279 279 275 283 284 283 284 284 285 286 287 287 286 289 289 290 290 290 289 289 289 289 290 291 291 290 291 292 291 291 291 291 292 292 292 293 292 292 292 291 291 291 290 290 290 289 288 287 286 285 284 283 283 282 281 281 281 281 281 281 280 280 280 280
285 283 284 280 276 273 273 275 279 282 282 281 278 278 278 279 278 281 281 280 277 276 275 278 280 286 285 284 285 286 286 287 288 287 286 288 289 289 290 290 288 289 290 290 291 290 291 292 291 291 290 291 291 291 291 292 292 291 292 291 291 291 290 290 290 290 289 289 287 286 285 284 283 282 281 281 281 280 280 280 280 280 280 279 279 279
276 274 275 281 283 282 281 280 276 278 281 281 278 279 279 278 278 281 283 280 280 276 276 281 282 283 285 285 284 286 287 287 288 288 287 287 287 287 287 288 289 290 290 290 291 292 290 290 290 290 290 290 290 290 291 291 291 291 291 290 290 290 290 290 290 289 289 288 287 285 284 283 282 282 281 280 280 280 280 280 279 279 279 279 279 278
280 282 272 271 273 276 275 276 275 276 280 279 279 279 278 278 278 281 281 281 282 279 278 282 281 281 285 285 285 287 287 287 288 288 287 287 287 288 288 288 288 288 289 289 288 289 290 292 290 290 290 290 290 290 290 290 290 290 291 290 289 289 290 290 289 288 288 287 286 284 283 282 282 281 280 280 280 280 280 279 279 279 279 279 278 278
286 280 273 274 273 274 274 274 274 276 275 275 276 277 277 278 277 277 280 282 281 281 281 280 277 280 284 286 287 287 288 289 289 288 287 286 285 285 285 286 287 288 289 289 290 291 291 291 290 290 290 290 289 289 289 289 289 289 289 289 289 289 289 289 289 288 287 287 285 284 283 282 281 280 280 280 280 279 279 279 279 279 278 278 278 278
282 276 271 271 272 272 273 274 273 275 275 275 277 276 278 277 277 280 280 276 279 281 277 276 276 279 282 285 285 286 285 287 286 284 283 283 285 286 286 287 288 289 289 289 290 291 291 291 290 290 291 289 289 289 289 289 289 289 290 289 289 289 288 289 288 287 287 286 284 283 282 281 280 280 280 279 279 279 279 279 278 278 278 277 277 277
280 276 276 270 275 273 272 273 273 273 273 275 278 277 277 277 277 278 277 275 273 274 275 275 276 278 285 286 286 285 282 283 283 283 285 286 287 287 287 288 289 289 289 290 290 290 290 290 290 290 289 290 289 289 289 289 289 289 289 289 289 288 288 288 287 287 286 285 284 282 281 281 280 280 279 279 279 279 278 278 278 278 277 277 277 276
282 275 271 272 277 275 271 272 272 270 272 270 272 274 273 274 274 275 275 279 278 279 276 276 277 280 286 283 282 281 281 282 283 285 285 286 287 287 287 288 289 289 290 289 290 290 289 289 289 289 290 290 289 289 289 289 288 289 289 289 289 288 287 288 287 286 286 284 283 282 281 280 279 279 279 279 279 278 278 278 277 277 276 276 276 276
278 276 276 277 277 273 271 271 270 267 269 273 277 279 276 278 280 279 280 280 281 283 279 279 283 288 286 282 283 282 282 283 284 286 287 287 288 287 288 288 289 290 290 290 289 289 289 290 290 291 290 290 289 289 289 289 289 289 289 288 288 287 287 287 286 286 285 284 283 281 280 279 279 278 279 278 278 278 278 277 277 276 275 275 275 275
276 281 277 275 276 275 271 268 268 273 272 278 281 277 280 278 279 279 279 279 280 282 284 286 287 284 283 283 284 285 283 284 286 288 290 289 288 287 288 289 290 290 290 290 290 290 290 291 291 290 290 290 290 289 289 289 289 289 289 288 287 287 286 286 286 285 284 283 282 280 279 279 279 278 278 278 277 277 277 276 276 275 275 275 275 275
278 276 275 271 279 276 274 272 275 270 275 282 277 279 278 280 280 281 283 282 281 281 282 281 282 282 284 286 287 287 286 285 284 286 287 287 290 290 289 289 289 289 289 289 288 289 290 290 290 289 288 288 288 288 288 287 287 287 287 287 287 286 286 286 285 284 283 282 281 280 279 279 278 278 277 277 277 277 276 276 275 275 275 275 274 274
277 279 275 274 275 275 275 275 270 277 284 279 280 279 279 279 280 280 279 282 282 281 282 282 284 286 285 285 285 285 285 285 286 287 288 288 288 291 290 291 291 290 289 289 290 290 290 289 289 289 289 289 288 288 288 288 287 287 287 286 287 286 286 285 285 284 282 281 280 279 279 278 278 277 277 277 277 276 275 275 275 274 274 274 274 274
281 278 280 277 272 275 275 275 279 281 283 280 278 278 278 280 278 280 281 285 285 284 282 282 284 285 285 284 285 285 284 285 287 289 290 289 288 289 291 291 291 290 291 291 291 291 291 291 290 290 289 288 289 288 288 287 287 287 286 285 285 285 285 285 284 283 282 281 280 279 278 278 277 277 276 276 276 276 275 275 274 274 274 273 273 273
280 281 281 280 274 275 277 276 277 279 274 284 285 283 283 282 282 282 283 283 287 285 285 284 284 285 285 285 284 284 285 286 284 287 290 288 289 289 287 288 286 288 290 290 288 288 288 288 288 288 289 288 288 288 288 287 287 286 286 285 285 285 284 284 284 283 282 281 279 278 277 277 277 276 276 276 275 275 275 274 274 274 273 272 272 272
278 279 280 281 277 274 274 274 272 272 280 286 284 282 282 281 282 281 283 283 290 285 285 285 285 286 285 285 285 284 285 284 285 289 292 290 288 288 288 287 288 288 289 289 289 289 288 288 288 287 287 288 287 287 287 286 286 286 286 285 285 285 285 284 284 282 281 280 278 277 277 276 276 276 276 275 275 274 274 273 273 273 273 272 272 272
278 277 280 278 272 273 274 273 276 274 279 284 283 282 282 281 281 283 280 283 291 284 285 285 285 286 285 287 286 286 286 285 288 292 291 290 289 287 289 289 287 287 287 287 287 288 289 287 286 286 287 287 288 287 286 286 286 286 286 285 285 284 285 285 284 282 281 279 277 277 276 276 275 275 275 274 273 273 273 273 273 272 272 272 272 271
277 275 276 278 277 275 275 276 276 280 284 282 282 281 281 280 284 281 279 288 288 285 284 285 286 287 287 286 287 286 289 292 291 288 286 288 287 286 287 288 289 289 289 288 288 285 287 287 288 288 288 288 288 286 286 285 286 285 286 285 284 284 285 284 282 280 279 278 277 276 275 275 275 274 273 273 272 272 272 272 272 272 271 271 271 271
271 270 270 270 274 276 276 276 279 281 286 283 281 282 281 283 280 280 291 285 286 285 284 285 286 286 287 287 288 291 291 289 285 285 287 288 289 289 287 287 286 285 285 285 285 286 287 286 286 286 286 286 286 285 285 285 285 285 285 284 284 285 284 282 281 280 278 278 277 276 275 274 274 273 273 272 272 272 272 271 271 271 270 271 270 269
279 276 276 277 274 272 272 274 274 274 282 283 282 283 282 283 288 291 287 284 284 285 284 284 286 286 287 287 289 290 288 286 286 287 287 288 288 288 287 287 287 288 287 285 285 285 286 286 286 286 286 286 285 285 285 285 285 285 285 284 285 284 283 281 280 279 279 277 276 276 275 274 273 272 271 271 271 271 271 270 269 268 269 269 269 268
281 279 275 274 278 278 273 272 276 286 286 285 288 287 284 288 289 288 288 289 283 284 284 285 285 286 287 289 288 288 287 287 285 285 285 285 286 287 287 287 287 287 287 287 287 286 285 286 286 286 286 285 285 285 285 285 285 285 284 284 283 282 280 279 279 279 278 277 276 275 274 273 272 271 270 270 270 270 269 268 267 268 268 268 268 268
282 283 283 282 281 280 280 283 287 284 285 287 289 290 289 289 287 287 288 289 288 286 285 286 286 286 287 288 288 288 285 286 288 287 287 288 286 286 286 286 287 287 287 286 286 285 285 286 286 286 285 284 284 284 284 285 285 284 283 284 281 280 278 278 278 278 277 276 275 275 273 272 271 270 269 269 269 270 269 268 266 268 267 267 267 268
280 281 280 282 283 282 283 286 288 284 283 285 287 288 287 286 284 284 286 288 288 288 286 287 288 286 286 287 288 286 288 287 286 285 286 287 287 287 286 286 286 286 286 286 285 284 284 285 285 285 285 284 284 284 284 284 285 284 284 283 281 280 278 276 275 275 275 275 275 274 273 272 271 270 269 269 269 268 268 268 267 268 268 268 268 267
280 278 281 282 283 282 282 283 281 285 287 286 287 289 289 287 287 286 285 286 288 287 286 286 287 287 286 286 288 288 288 287 286 287 286 286 285 285 285 285 286 286 285 285 285 284 283 284 284 284 284 285 284 284 283 283 284 285 284 282 281 279 277 275 275 274 274 273 273 272 271 272 272 271 270 270 270 269 268 268 268 268 267 269 269 268
282 280 282 282 281 283 284 285 284 284 284 285 286 287 288 288 287 286 287 287 287 285 285 286 285 285 285 284 287 288 288 286 286 287 286 285 285 285 285 285 286 285 285 286 285 284 285 284 285 284 284 284 285 284 283 283 283 283 283 282 280 278 276 276 275 275 273 273 273 272 271 272 270 270 272 271 269 270 270 269 268 268 268 269 269 268
280 281 281 281 282 284 285 285 286 285 286 286 285 284 287 289 290 288 286 285 284 284 284 283 284 285 285 286 286 287 287 285 286 287 287 286 285 285 285 285 285 286 285 284 283 283 285 284 284 285 284 284 285 284 284 283 283 282 280 280 278 277 276 276 275 275 274 273 273 273 272 273 271 271 272 271 269 269 269 269 269 269 268 268 268 268
281 281 282 280 279 280 282 286 286 283 285 289 288 288 287 287 287 288 286 285 284 284 284 283 283 283 284 286 286 285 287 287 286 286 286 286 285 285 285 285 285 285 284 284 284 283 284 284 285 284 284 285 285 283 283 283 282 281 280 279 277 276 276 276 275 274 274 274 274 274 272 272 271 271 270 269 270 269 269 266 267 268 268 270 269 269
284 284 283 283 283 283 287 288 288 290 290 290 291 289 288 288 287 286 286 286 285 286 285 285 284 283 282 283 284 285 286 288 287 285 285 285 285 285 285 285 284 283 283 283 282 281 282 283 283 283 283 284 283 282 282 282 281 279 279 278 276 276 277 276 276 275 275 274 274 274 273 273 272 271 270 269 268 268 268 269 269 269 270 271 270 270
Wind_Speed
3 9 9 8 8 4 5 1 2 12 17 17 16 16 11 12 8 6 4 3 4 5 6 5 4 4 5 5 4 5 5 4 4 5 4 5 5 5 5 4 2 2 3 3 0 1 3 3 3 3 3 3 4 4 5 5 5 4 4 4 4 3 2 3 3 2 2 2 1 2 2 2 1 2 2 1 1 1 2 2 3 3 3 2 2 2
3 9 4 4 2 2 2 2 4 18 15 17 16 16 12 11 9 2 4 2 1 1 3 4 4 2 4 4 5 5 6 6 7 6 7 7 7 5 5 3 3 5 1 2 3 5 5 4 4 4 4 5 6 6 6 6 6 5 4 5 4 3 3 4 3 2 2 1 2 3 3 3 3 3 3 2 1 1 1 1 3 3 2 2 2 2
7 7 4 5 3 1 1 2 10 17 16 13 14 14 13 7 10 7 5 3 2 3 4 6 5 2 0 4 5 6 6 4 6 6 6 6 6 5 4 4 4 5 6 4 5 4 5 5 4 5 5 5 6 5 6 6 5 5 5 5 5 4 4 3 2 2 2 1 1 2 2 3 3 2 2 2 2 1 1 1 2 2 2 2 2 3
8 3 5 5 1 3 6 9 14 13 11 11 13 13 12 13 12 7 3 4 6 2 7 8 6 3 2 2 4 5 5 4 5 6 6 5 5 6 5 5 6 7 6 7 6 6 6 6 6 5 5 6 5 5 6 6 7 5 5 5 5 4 4 3 2 2 2 2 2 1 3 3 3 4 3 4 3 2 2 1 1 1 2 2 2 3
7 4 2 3 3 6 13 14 14 10 9 5 4 12 13 16 3 8 7 8 10 10 6 8 5 5 6 6 6 5 5 3 5 5 6 6 6 5 3 5 7 9 8 6 5 5 6 6 7 6 5 3 4 6 6 5 5 4 6 5 4 4 4 2 1 2 2 2 2 2 3 4 4 4 4 4 2 2 1 2 1 2 2 2 2 2
9 2 2 1 3 7 13 7 5 11 10 6 6 1 15 12 15 12 12 10 5 4 4 2 5 5 7 8 9 8 5 8 6 7 9 9 9 8 8 9 8 8 7 6 5 5 4 4 3 3 3 4 5 5 4 4 4 4 3 2 2 3 2 2 2 3 2 2 2 3 4 4 4 5 3 3 3 4 3 3 2 2 2 2 2 3
3 5 0 8 6 6 9 7 2 3 10 9 4 0 10 13 14 13 9 9 8 6 3 0 3 3 3 5 8 8 10 13 12 12 12 9 8 8 8 8 7 7 6 6 6 5 5 5 4 3 4 4 4 3 2 3 3 2 1 1 2 3 2 1 1 0 1 2 2 3 4 4 5 5 3 1 2 3 2 2 1 2 2 3 3 4
6 6 4 4 7 7 8 7 2 4 9 5 2 3 9 15 11 9 10 1 4 6 3 1 4 2 2 3 2 5 8 10 12 14 14 12 11 10 9 8 7 6 5 4 5 6 5 4 3 3 2 2 2 2 2 1 1 1 1 2 3 3 2 1 1 1 2 3 3 4 5 4 4 3 4 4 2 2 2 1 1 1 2 3 3 3
4 3 5 4 3 3 4 1 4 3 2 6 5 7 10 7 7 7 6 6 4 4 4 3 9 3 4 3 2 4 6 9 13 12 13 14 14 11 9 7 6 6 5 4 4 4 2 2 2 3 3 3 3 2 0 0 0 1 2 3 2 1 1 1 2 3 4 4 3 4 3 3 2 2 2 2 1 1 0 1 2 2 2 2 3 4
3 2 3 1 1 4 2 2 3 3 11 1 7 8 9 8 7 5 7 6 4 3 3 4 7 2 3 5 4 2 5 7 7 10 12 12 12 11 9 8 7 5 5 4 5 3 4 3 2 1 1 2 1 1 1 1 1 2 1 1 0 2 1 1 3 2 2 3 3 3 2 3 3 1 1 1 0 0 0 2 2 1 2 2 3 3
2 2 2 4 3 3 1 1 2 4 9 14 11 11 7 8 6 5 4 3 4 4 2 5 5 3 3 4 5 6 3 1 2 2 3 6 8 8 7 7 5 3 2 2 3 4 4 3 3 2 3 0 2 2 0 0 1 2 2 2 2 1 1 1 1 2 2 2 2 3 2 2 2 1 1 1 1 2 2 2 2 2 2 3 3 3
4 2 2 2 2 2 4 8 7 9 12 7 9 13 12 7 6 5 4 1 3 3 2 3 4 4 5 2 1 2 3 2 1 1 2 1 2 3 1 1 2 2 3 3 3 3 2 2 3 2 2 1 0 1 1 2 3 3 2 2 3 3 2 2 1 2 2 2 2 1 1 1 1 1 1 2 2 2 2 2 3 3 2 3 2 3
10 8 2 2 2 5 1 14 5 3 2 3 13 12 9 7 6 4 2 5 3 1 2 3 3 2 10 4 2 3 4 3 2 1 2 2 2 1 1 1 2 2 3 3 3 3 3 3 2 1 1 2 2 2 3 3 2 2 2 2 4 4 2 2 1 1 1 1 1 1 1 1 1 1 2 2 2 1 2 3 3 3 3 3 4 4
5 1 5 6 1 4 4 7 5 6 2 11 12 10 7 10 3 6 1 4 3 0 1 0 2 5 3 2 2 3 2 2 2 2 2 2 3 2 2 2 1 1 1 1 1 1 1 1 2 2 2 3 3 3 3 2 2 2 2 2 4 4 2 2 2 2 2 3 2 1 1 2 1 2 2 2 2 2 3 3 3 3 4 3 4 4
8 8 6 8 4 7 5 5 2 4 3 3 4 3 1 2 3 6 5 5 3 2 2 1 2 2 5 3 1 1 2 2 1 2 2 2 2 2 2 0 1 2 2 1 2 2 3 3 3 4 4 4 3 4 3 3 3 2 3 3 4 4 3 2 3 3 3 3 2 2 2 2 2 2 2 3 3 3 3 3 3 3 3 3 4 4
4 6 3 4 3 4 4 3 3 2 7 2 1 3 1 2 2 2 2 2 3 4 2 3 4 1 3 3 1 1 1 1 0 2 2 2 2 1 2 3 3 3 4 4 5 5 5 5 5 4 4 4 4 4 3 3 2 2 3 3 2 3 3 3 3 3 3 3 3 3 4 4 3 3 3 4 3 3 4 4 3 3 3 3 3 4
3 6 5 2 1 6 5 2 2 4 5 4 2 1 3 2 4 7 3 4 2 1 1 1 5 4 4 3 2 2 3 2 2 3 3 3 2 1 3 3 4 4 4 5 5 5 6 6 5 4 4 3 3 3 3 2 2 2 3 3 4 4 3 3 3 3 3 4 5 4 4 4 5 5 5 4 5 4 4 3 3 3 3 3 4 4
6 6 1 1 6 1 1 2 1 5 3 3 2 5 4 1 1 1 2 0 1 2 1 2 3 3 2 2 2 4 4 4 4 4 3 2 2 3 3 3 3 4 4 4 4 4 4 4 4 3 2 2 2 3 3 2 1 1 1 2 3 3 4 3 3 3 3 4 5 5 5 5 5 5 5 5 4 3 3 3 2 3 3 4 4 3
1 12 4 4 2 1 2 1 4 10 7 1 5 4 2 2 2 2 1 2 2 1 1 1 3 6 6 4 3 5 7 8 6 5 4 5 5 4 4 4 3 3 3 4 4 4 3 3 3 2 3 2 1 1 1 1 1 1 2 2 2 3 3 3 3 3 3 3 3 3 5 5 5 5 5 4 3 3 3 3 3 4 4 3 4 4
2 5 2 1 3 3 2 3 4 3 7 8 3 4 0 2 2 2 1 2 1 1 0 0 1 2 6 4 1 1 6 8 8 6 8 7 6 5 4 4 3 3 3 2 3 3 2 3 2 1 2 2 1 1 1 1 1 3 2 2 3 3 3 3 4 4 5 4 4 5 5 5 5 5 4 3 3 3 4 3 4 4 3 4 4 4
2 3 7 3 3 2 3 7 3 3 2 3 2 1 2 3 1 1 2 1 1 1 1 1 1 1 1 1 1 1 2 2 7 8 6 5 5 5 4 4 3 2 2 2 2 2 2 2 1 1 1 1 1 0 0 1 2 2 2 2 1 2 4 4 3 4 4 4 5 6 6 5 5 5 4 4 4 4 3 3 3 3 4 4 4 5
2 3 10 7 6 2 4 2 2 2 3 3 3 2 2 4 2 2 1 2 1 1 1 2 2 1 1 1 1 2 1 2 3 2 4 5 6 5 3 2 2 2 2 2 1 0 1 1 1 1 1 1 1 1 2 2 2 2 1 1 2 2 3 4 4 4 4 4 4 6 6 5 4 4 4 4 4 4 3 3 3 4 4 4 4 4
2 3 5 6 2 1 2 3 1 3 4 2 3 1 1 1 1 1 0 2 0 2 2 1 1 0 2 1 2 3 3 3 3 3 4 5 6 4 3 2 1 1 1 1 1 0 1 1 2 1 0 1 1 1 1 1 1 1 1 1 1 3 3 3 4 3 4 5 5 6 5 5 4 4 4 4 4 4 3 3 4 4 4 5 4 4
2 3 6 2 1 1 2 0 2 2 3 3 1 1 2 0 1 1 2 1 1 1 1 1 1 0 3 1 2 2 2 2 1 4 4 4 3 3 3 3 3 3 3 2 2 2 2 2 1 1 1 1 1 1 1 1 1 1 2 2 2 4 4 4 3 3 4 5 6 5 5 5 4 4 4 4 3 4 4 3 3 4 4 5 4 5
1 2 2 7 5 1 1 2 2 2 2 1 0 2 2 2 3 3 3 0 0 4 1 1 2 0 2 0 1 2 1 3 4 4 3 3 2 2 2 2 2 1 1 2 3 3 3 2 2 1 1 1 1 1 1 2 2 3 3 2 3 3 3 3 3 4 4 5 6 5 5 5 4 4 4 4 3 3 3 3 3 3 4 5 5 5
1 2 2 7 8 6 4 3 5 4 3 2 1 2 2 3 7 2 1 1 2 1 1 1 3 1 2 1 2 2 2 3 4 2 2 3 1 2 2 2 2 2 3 3 4 3 4 3 1 1 2 2 1 1 2 2 3 2 3 2 2 3 3 3 2 4 5 5 5 5 5 4 4 4 4 3 2 2 2 3 3 4 4 4 5 5
4 2 3 1 0 1 1 1 3 4 2 3 2 4 5 1 3 2 2 1 4 3 4 6 3 5 8 4 4 6 5 7 6 5 5 5 5 3 1 1 3 3 4 5 4 2 1 2 3 2 2 1 2 2 2 2 3 3 3 3 2 2 3 3 3 4 4 5 5 5 4 4 4 3 2 2 2 2 2 3 3 4 4 4 5 5
3 2 3 4 5 2 2 1 3 4 1 1 3 4 4 4 4 3 5 2 6 5 5 4 4 5 8 2 5 6 7 6 5 5 6 4 3 4 5 4 4 4 4 3 3 4 5 4 4 3 3 2 2 2 2 2 2 2 2 3 3 2 3 2 3 4 5 5 5 4 4 3 3 2 2 1 1 2 2 2 3 3 4 4 5 5
2 2 2 2 1 1 1 2 2 1 2 1 1 2 6 7 6 7 7 4 6 4 5 3 1 5 8 4 1 6 8 9 7 5 3 3 2 3 3 5 7 7 6 6 6 5 5 5 5 4 4 3 2 3 3 3 2 2 2 2 2 3 3 3 4 4 5 5 5 4 3 3 2 1 1 1 1 2 2 3 3 3 4 4 5 5
2 3 2 1 2 1 0 2 2 2 1 1 4 4 3 7 9 8 2 2 6 5 2 1 1 12 12 8 5 4 0 2 1 2 2 3 5 6 6 7 8 7 7 7 7 6 5 4 5 4 3 3 4 3 4 4 3 3 3 4 3 3 2 3 4 5 4 4 4 4 3 3 2 1 1 1 1 2 2 3 3 3 4 5 5 6
0 1 2 1 0 1 1 1 1 4 1 4 3 4 5 4 4 6 3 2 3 8 7 4 6 12 9 8 10 1 3 1 1 5 7 7 6 7 8 8 7 7 7 6 5 6 5 5 4 3 3 4 4 4 4 3 3 3 3 3 3 3 3 3 4 4 5 5 4 4 3 2 2 1 1 1 1 2 3 3 3 4 5 5 6 6
3 1 1 1 1 1 2 3 1 2 3 2 7 6 7 6 5 7 8 10 7 7 3 3 3 8 8 4 1 1 3 6 8 8 7 6 7 6 7 7 7 7 7 7 7 5 5 5 5 5 5 4 4 4 4 4 3 3 3 3 3 3 3 3 4 5 5 4 4 3 3 2 2 1 0 1 2 2 3 3 4 4 5 5 6 6
1 6 3 2 1 2 0 2 4 3 2 5 11 15 19 12 5 1 5 5 14 8 5 5 10 5 3 3 2 4 6 6 7 8 8 6 6 8 8 8 7 7 7 6 6 7 6 6 6 5 4 4 4 4 4 4 4 3 4 4 3 3 4 4 4 5 5 4 4 3 2 2 2 1 1 1 2 2 2 3 4 5 5 6 6 6
1 2 2 0 1 0 2 2 1 0 2 3 2 6 11 16 18 11 10 15 15 13 9 5 3 3 2 2 5 5 9 8 7 6 3 6 7 7 7 6 6 5 3 3 4 6 6 4 3 3 3 4 4 4 4 3 3 3 3 3 3 4 4 4 4 4 5 4 4 3 3 2 1 1 1 1 2 2 3 4 4 4 4 5 5 6
3 3 2 0 0 0 1 1 0 2 7 0 1 2 3 5 2 14 7 2 7 14 11 8 10 7 7 5 4 2 2 1 2 2 5 5 5 6 8 8 7 6 5 5 5 6 5 5 4 4 4 4 4 4 4 3 3 4 3 3 4 3 4 4 5 4 4 4 4 3 3 2 1 1 1 1 1 2 3 3 4 3 4 4 5 6
5 4 4 1 0 1 0 1 1 3 1 2 2 3 2 3 3 1 12 18 12 15 17 15 15 8 4 4 3 2 2 2 4 5 7 5 6 6 7 7 6 5 6 6 8 7 6 6 6 6 5 4 5 4 4 4 4 4 4 3 3 4 4 4 5 4 4 4 4 3 2 2 2 1 1 1 1 2 3 3 3 4 4 4 4 4
4 4 1 1 1 2 0 2 7 6 8 2 1 5 8 6 10 10 6 8 15 17 15 17 15 8 5 2 2 1 1 1 3 5 6 8 8 6 5 2 2 5 6 5 5 4 4 4 4 4 5 5 5 5 4 4 4 4 4 4 3 4 4 5 5 5 5 4 4 3 3 2 1 1 1 1 1 2 2 3 3 3 3 4 4 5
2 1 1 2 1 0 1 1 2 1 2 3 2 2 5 2 2 2 2 8 3 11 17 16 15 12 10 4 4 4 3 3 5 7 6 7 7 7 3 1 1 2 4 4 3 2 4 3 3 4 4 6 5 4 4 5 5 5 5 4 4 5 5 5 5 5 5 4 4 3 2 1 1 1 1 1 1 2 2 2 2 2 3 3 5 5
3 3 1 0 2 1 1 2 2 3 3 2 1 1 3 3 3 1 1 5 2 6 13 17 15 10 12 10 8 6 6 4 7 4 5 8 7 6 6 4 3 3 3 4 6 6 5 5 4 5 4 5 6 5 5 5 6 6 6 5 5 5 5 6 5 5 5 4 4 3 3 2 1 1 0 1 1 1 2 2 2 2 2 3 3 4
4 2 0 1 1 1 2 2 4 4 3 1 3 2 3 3 4 2 1 2 1 3 7 12 14 11 11 10 10 8 8 6 5 1 3 6 6 7 7 7 6 6 5 3 2 2 4 5 5 4 5 6 6 6 6 6 6 7 6 5 4 5 6 6 5 5 4 4 4 3 3 2 2 1 0 1 1 1 1 2 1 2 3 3 3 3
0 1 2 3 1 2 3 2 3 5 6 2 3 3 3 3 3 1 4 0 1 1 5 10 9 8 11 11 10 9 7 2 1 2 3 8 7 5 2 2 3 3 5 5 5 4 4 5 6 6 7 5 5 6 6 6 6 6 5 4 5 7 5 4 5 5 5 4 4 4 4 3 2 2 1 0 1 1 1 1 2 2 3 3 3 3
1 2 0 2 2 2 2 3 4 5 4 5 3 4 2 3 2 3 0 2 0 1 3 7 8 9 11 12 11 3 5 3 2 1 4 6 6 7 7 6 4 2 2 2 4 5 4 4 4 3 3 3 5 5 5 6 6 6 5 5 6 5 4 5 6 6 6 6 5 4 4 3 2 2 1 1 1 1 0 1 1 1 2 2 2 4
7 5 3 4 2 3 1 0 3 4 0 7 12 4 1 3 1 1 1 0 0 0 5 5 6 8 9 10 4 4 4 4 3 4 4 5 6 8 8 7 7 7 7 5 4 5 5 5 5 6 5 4 5 5 5 6 7 6 4 6 5 4 5 6 6 7 6 5 5 4 4 4 4 2 1 1 1 1 0 0 1 1 2 2 2 3
3 1 1 2 5 3 3 4 5 3 4 11 12 6 9 8 2 2 0 2 1 2 5 4 4 6 8 8 10 5 3 5 2 3 3 3 4 2 4 4 4 3 4 5 4 6 7 5 4 5 4 4 5 5 5 6 6 5 4 6 4 3 3 5 5 4 4 4 4 4 4 4 3 2 1 1 1 0 1 1 1 1 1 2 2 2
11 5 3 1 4 5 5 6 3 1 4 10 11 2 2 1 1 2 2 1 2 3 4 4 6 7 8 7 8 7 5 6 5 7 7 7 7 7 8 9 9 8 7 7 7 6 7 7 7 5 5 4 5 5 5 5 6 4 7 5 5 5 5 5 5 5 4 5 4 4 4 3 3 2 1 1 1 1 1 1 1 1 0 1 1 2
4 1 1 1 4 6 7 10 2 1 3 8 12 7 3 1 1 2 3 2 4 3 7 5 7 8 9 7 9 6 5 7 6 6 5 4 5 5 4 3 4 4 4 3 4 6 7 5 4 5 6 5 6 5 5 5 6 7 7 5 5 6 5 7 7 6 6 5 4 4 4 4 3 2 2 2 1 1 0 0 1 1 1 1 1 1
2 3 2 2 2 2 4 4 6 12 7 9 10 10 8 6 4 3 3 4 2 2 5 3 4 8 10 9 10 9 8 6 6 5 5 3 4 5 6 7 7 8 8 8 8 6 5 4 6 6 5 6 6 5 5 5 6 6 4 6 6 6 6 7 7 7 6 5 4 3 3 4 3 3 2 3 2 1 1 1 1 1 2 2 2 2
2 4 3 4 1 5 5 2 5 4 5 5 5 7 11 12 11 8 5 1 0 0 3 3 3 5 6 8 9 8 8 7 7 6 5 5 5 4 5 6 6 6 6 5 5 7 4 5 6 7 6 7 6 6 6 6 6 5 4 4 5 6 6 6 6 6 6 5 4 4 4 4 4 3 2 2 1 1 1 1 1 2 2 1 2 2
2 8 4 5 5 7 11 15 14 7 10 12 10 11 10 7 7 10 9 7 4 3 3 3 4 3 9 8 8 7 7 8 8 7 7 6 5 5 6 6 6 6 6 7 7 7 8 6 6 8 8 7 5 5 6 5 6 5 5 5 6 7 7 6 7 5 5 5 4 4 4 3 3 3 2 2 2 2 2 2 2 2 2 2 2 2
4 4 2 2 1 4 8 8 7 2 3 5 9 15 16 15 10 9 7 9 8 8 6 6 6 3 4 3 6 8 10 8 8 6 7 7 8 6 5 5 5 6 5 5 5 7 7 6 6 6 7 6 5 5 5 5 5 5 5 5 6 7 8 7 5 5 5 4 4 4 4 3 3 3 2 2 1 1 1 3 5 4 3 2 2 4
9 10 8 6 4 9 11 11 7 2 2 7 4 3 6 7 11 12 13 13 12 10 9 8 7 4 6 8 6 8 9 9 9 8 6 6 7 5 5 7 7 6 6 6 6 6 7 8 6 5 6 7 5 4 5 5 5 6 6 6 7 8 7 7 6 5 4 5 5 5 4 4 3 3 2 2 1 1 1 1 2 6 8 6 3 4
Wind_Direction
287 149 155 159 144 108 29 219 296 105 114 122 121 127 117 106 83 79 71 92 316 82 48 78 77 129 144 156 163 174 178 216 189 189 201 206 207 210 212 214 239 267 269 70 89 211 215 218 211 209 205 216 217 222 229 231 230 228 228 221 233 222 220 252 250 252 282 279 257 224 255 305 345 322 310 258 85 25 45 18 1 351 6 348 322 340
208 132 62 19 11 357 309 256 167 111 124 126 126 123 127 129 127 62 100 29 92 264 91 105 119 105 140 152 166 168 182 205 195 191 202 205 207 206 210 207 219 234 269 246 233 208 208 210 200 203 210 213 221 221 219 225 231 229 220 231 239 231 232 242 262 292 276 283 317 327 333 336 327 324 316 330 358 25 37 16 351 353 355 327 336 2
145 121 57 353 337 217 183 237 134 121 123 126 129 138 129 108 106 95 69 54 30 112 123 155 119 83 139 199 173 191 203 206 199 210 214 207 197 202 201 208 223 237 242 221 234 216 209 195 198 205 212 215 227 232 220 224 227 228 229 228 233 237 242 239 224 242 267 275 285 295 335 328 320 283 288 298 313 326 335 344 343 343 337 339 21 19
117 96 1 341 309 152 126 128 111 109 109 126 133 149 151 150 147 138 32 71 48 47 146 163 131 144 227 200 207 209 212 222 213 217 229 233 228 222 215 204 216 236 244 234 227 217 202 201 205 201 211 217 214 225 228 222 227 230 230 225 221 235 238 245 218 244 268 278 313 293 301 288 266 294 288 262 248 215 239 246 315 4 356 16 30 29
93 58 351 302 252 151 121 123 119 120 106 22 103 137 141 161 134 125 146 122 104 72 101 156 152 155 184 187 210 207 204 229 230 226 231 228 235 239 220 222 225 225 229 231 214 211 212 208 213 211 200 193 219 223 228 221 220 222 231 227 224 242 249 248 204 232 254 247 243 233 237 234 241 225 234 241 205 181 312 311 19 18 24 31 44 33
85 27 283 168 116 130 120 116 102 119 122 113 15 39 147 144 117 120 141 144 171 103 72 285 180 200 156 196 197 187 179 224 211 220 224 215 212 213 222 229 222 224 231 241 238 227 216 220 211 189 188 212 223 231 227 229 239 240 243 214 221 249 254 243 222 235 256 280 304 307 306 299 295 300 306 332 340 325 330 346 2 38 48 46 50 37
22 3 263 125 109 100 100 104 320 300 130 137 135 62 139 130 125 138 149 167 173 181 121 36 265 174 148 189 195 195 205 217 219 230 239 232 222 209 220 223 224 227 216 217 237 245 238 230 228 219 215 220 235 242 221 236 247 254 268 251 242 255 253 186 258 97 254 250 248 259 268 268 283 295 307 20 303 304 329 343 12 74 70 48 45 43
346 18 60 77 112 115 122 120 9 342 132 105 72 179 129 127 134 145 145 97 80 57 137 112 19 318 163 131 136 193 209 213 219 223 227 231 230 229 224 221 223 224 219 211 216 227 232 237 236 240 196 207 243 259 231 240 257 243 234 218 227 230 234 96 85 134 214 250 239 240 242 252 262 276 296 306 318 322 324 336 66 83 80 66 46 43
3 19 9 78 95 100 102 20 332 310 61 111 171 158 129 124 111 128 131 117 120 184 121 72 352 240 253 111 114 171 210 222 228 224 222 223 226 229 230 236 228 238 245 235 236 239 238 237 232 234 249 242 246 239 254 16 350 185 192 216 217 241 75 94 172 207 202 231 248 251 260 265 261 279 283 306 299 309 350 109 81 79 89 88 68 49
19 44 308 319 351 99 7 329 299 19 98 58 110 88 94 95 78 81 119 115 150 206 156 45 352 258 233 124 160 160 250 245 234 226 228 225 223 218 217 225 232 227 225 239 259 266 253 248 255 237 263 250 199 61 46 177 209 195 186 196 54 86 118 166 193 206 207 223 239 243 249 261 273 285 297 268 55 101 97 82 69 64 59 44 48 47
107 332 298 38 35 14 106 59 267 271 99 140 142 116 101 86 92 68 55 125 136 194 89 7 354 325 268 156 178 173 189 84 115 160 225 230 224 219 215 223 226 227 228 228 239 249 256 252 256 224 243 337 82 79 140 163 51 57 69 63 93 120 168 167 169 186 190 196 219 234 237 253 295 340 329 309 98 45 43 31 45 35 35 34 31 16
94 95 74 22 113 296 262 75 43 85 117 150 146 130 113 86 117 100 85 339 203 177 56 353 341 321 224 141 191 182 89 226 264 77 81 117 215 224 188 307 309 296 279 270 257 250 240 244 229 225 241 250 41 157 138 65 62 70 85 133 136 125 142 148 155 178 194 206 202 242 286 325 17 16 11 37 55 41 29 19 19 16 14 17 26 12
42 32 246 304 184 359 39 102 104 112 208 203 144 147 138 133 150 134 162 184 217 186 57 344 315 243 245 271 52 108 197 157 208 337 33 26 51 67 67 1 300 283 266 252 238 228 216 214 209 174 163 170 169 102 66 72 87 113 127 152 138 118 111 120 150 160 144 116 77 54 85 76 94 65 63 71 67 38 21 26 21 8 9 11 4 5
31 324 28 346 217 33 320 129 148 128 212 155 157 154 141 141 157 149 124 353 342 86 358 357 45 263 343 270 56 246 53 20 353 300 311 309 324 349 345 333 314 278 263 233 213 198 134 123 113 115 112 94 93 86 94 106 121 125 127 125 117 108 109 118 113 94 90 72 60 75 69 87 97 102 92 76 68 49 42 30 34 21 11 8 4 358
131 113 24 1 95 344 13 41 343 82 122 66 4 321 12 78 153 157 178 182 184 103 103 75 206 243 193 101 21 78 2 335 317 289 292 278 308 312 320 285 147 121 93 98 98 96 106 102 84 87 84 89 96 111 116 115 112 115 121 129 130 127 121 106 86 88 88 91 92 86 90 100 106 107 97 68 58 56 50 46 42 32 17 7 1 3
34 58 33 359 304 314 23 357 334 82 87 41 358 280 235 71 321 78 61 43 127 131 152 188 246 8 296 120 172 311 217 178 162 136 208 137 106 57 109 73 63 71 78 84 94 91 78 74 84 94 100 107 112 113 114 114 122 125 117 122 108 103 97 88 93 87 92 92 90 92 100 96 98 98 93 87 75 66 54 50 37 38 21 10 358 6
162 73 339 337 29 50 42 340 48 291 165 174 224 100 45 351 105 125 111 68 295 309 189 72 282 237 244 188 186 166 160 144 132 143 159 138 124 118 89 76 71 70 75 75 73 77 84 87 85 90 102 111 114 118 118 119 117 124 135 138 123 103 99 95 87 98 98 105 103 95 97 98 91 81 79 83 79 74 65 52 42 27 21 12 5 359
133 115 57 276 91 122 257 38 99 63 303 124 127 126 112 298 301 300 132 159 37 227 171 156 260 281 334 225 118 164 190 167 168 165 151 168 191 160 102 90 86 77 72 73 79 78 77 85 92 95 92 96 114 122 130 128 117 60 44 66 106 116 110 100 98 100 106 112 108 104 92 81 82 85 82 81 82 72 64 53 38 20 17 15 359 352
108 104 58 25 287 4 187 230 98 47 27 335 89 128 239 126 173 48 114 138 147 223 280 224 311 265 232 244 138 184 195 182 179 167 180 185 186 161 128 116 117 107 101 94 91 89 92 93 94 104 113 118 126 115 56 73 86 96 85 70 59 87 73 76 81 101 99 103 98 86 89 91 86 83 83 85 84 75 65 49 33 25 14 359 349 354
312 108 91 313 339 323 350 333 133 70 42 50 132 115 236 305 29 128 26 342 293 151 10 172 53 274 177 233 38 45 189 175 164 176 196 190 173 155 144 143 131 113 94 101 96 90 91 93 92 108 140 153 150 127 74 61 116 91 78 103 103 91 94 106 116 126 118 108 106 104 97 84 86 86 87 82 74 67 56 41 28 13 0 359 352 356
76 300 133 139 313 197 138 359 53 350 117 150 167 98 114 38 309 36 58 10 324 157 197 353 240 211 82 110 178 7 348 196 176 186 184 173 160 154 158 145 132 117 128 110 105 106 107 112 123 164 228 252 276 301 29 71 73 66 76 94 104 119 122 116 122 125 118 113 106 107 101 100 97 96 93 84 73 66 51 37 20 12 359 350 359 349
68 11 121 132 128 41 54 43 333 338 337 351 335 46 40 139 140 192 159 149 1 272 179 186 257 24 71 106 247 294 318 254 240 236 178 168 168 172 159 150 148 149 147 131 115 184 144 157 166 191 210 212 200 147 107 66 79 87 94 83 98 107 110 131 133 122 114 102 104 104 105 101 98 93 87 84 68 57 47 24 23 5 353 349 348 350
332 95 94 93 43 82 26 60 340 332 295 324 316 66 358 354 322 302 215 160 88 85 327 2 310 286 73 174 242 261 274 253 216 192 200 179 175 162 147 149 183 241 159 168 220 247 232 234 230 237 245 86 54 41 39 82 115 132 113 111 114 122 120 113 111 103 111 111 109 107 106 106 97 92 86 74 62 51 35 26 8 0 349 345 346 343
251 89 95 57 144 156 197 218 216 331 298 215 137 101 238 264 15 5 21 117 164 114 180 162 255 246 107 133 247 266 267 279 226 212 215 173 158 152 161 170 183 184 199 233 261 248 236 233 240 226 158 130 111 106 118 152 151 126 97 100 122 118 122 122 118 116 112 111 109 111 107 99 96 86 74 68 59 42 31 9 355 351 342 344 342 340
130 297 125 123 130 160 187 181 184 159 220 282 327 107 15 93 82 93 105 315 201 206 317 206 253 123 111 53 231 218 211 217 210 199 214 208 159 172 176 177 186 196 202 205 199 204 206 207 198 154 121 116 121 131 131 131 110 98 103 112 115 115 117 115 121 124 119 120 117 109 103 98 89 82 70 63 51 40 14 355 349 347 345 345 343 342
5 111 197 150 152 161 177 207 208 190 189 127 65 134 226 166 141 179 172 163 265 105 130 225 250 289 98 221 238 212 229 239 223 154 174 233 218 182 179 171 180 197 196 189 206 209 197 185 151 146 134 128 124 129 121 106 103 105 105 92 90 129 133 125 130 126 124 122 116 108 101 95 87 75 69 59 52 28 356 350 349 346 345 347 341 344
112 78 23 354 10 99 58 20 17 333 91 202 178 199 168 245 354 352 46 149 233 142 200 238 264 328 294 176 204 209 209 217 209 194 202 200 213 228 263 235 209 205 197 203 203 196 181 217 181 135 137 146 146 128 112 120 114 109 105 114 121 118 128 129 128 125 120 117 111 109 98 89 79 74 68 57 35 360 355 346 349 348 347 342 342 345
110 103 12 67 38 29 4 19 348 332 206 103 141 190 158 176 187 195 199 225 117 127 259 217 205 226 265 142 216 213 214 224 219 203 195 187 190 194 199 213 229 232 228 226 228 216 207 181 144 161 170 168 140 128 131 109 90 91 122 139 140 136 128 128 128 123 120 118 111 104 99 87 83 79 66 49 18 357 341 344 345 349 341 342 348 350
136 126 220 62 121 337 282 296 313 299 13 329 278 164 184 187 173 185 227 181 169 222 253 65 154 213 261 254 219 217 210 215 217 198 159 136 134 174 192 209 213 216 209 210 213 204 193 176 171 179 184 158 148 145 122 120 118 137 145 138 130 133 120 130 128 120 121 117 113 104 102 105 91 88 90 37 6 338 343 345 344 344 346 350 350 343
97 70 144 310 126 250 359 321 327 253 160 257 224 215 209 177 210 221 230 342 237 248 30 1 245 257 267 269 228 225 328 272 111 94 128 183 194 189 199 206 207 207 203 206 202 195 187 177 177 191 175 164 162 143 144 149 155 163 156 144 141 132 123 139 125 128 124 118 113 116 116 114 118 101 73 28 343 348 344 345 345 348 352 353 347 338
311 105 76 260 215 265 346 11 6 15 315 267 235 208 194 210 244 242 273 263 23 295 251 234 278 289 260 214 250 151 112 47 143 179 193 196 189 191 198 204 205 205 207 208 200 192 181 187 195 194 194 175 162 156 156 159 156 153 145 143 140 128 133 141 131 127 128 121 123 128 132 130 109 99 60 360 334 347 356 349 347 352 354 349 342 336
24 126 69 142 281 277 45 359 15 21 353 255 279 239 189 160 204 198 209 203 182 215 116 130 274 254 259 104 103 250 185 194 197 194 190 198 197 191 201 206 205 209 209 204 200 182 183 193 199 201 195 168 160 159 165 165 159 153 145 146 134 126 137 140 133 132 126 128 135 138 138 122 120 107 68 349 359 358 352 345 352 355 351 343 341 340
59 133 146 158 190 274 310 26 350 355 286 280 245 218 195 206 188 130 235 202 213 173 150 188 232 236 85 117 170 195 193 203 210 198 192 198 198 196 202 203 208 212 208 200 189 186 188 195 199 192 161 154 167 171 168 149 150 153 146 143 125 133 146 141 137 134 135 140 142 138 131 130 122 111 50 19 359 355 342 350 355 353 348 342 336 335
133 123 109 259 231 315 315 331 205 192 248 250 56 337 172 187 193 188 212 208 209 183 215 217 252 85 145 171 210 190 194 207 209 199 194 191 181 199 216 220 220 216 203 189 187 183 187 192 183 166 161 158 155 145 133 148 140 127 121 123 137 150 143 143 142 145 143 147 143 136 140 133 133 119 60 18 357 349 352 356 354 347 338 329 334 342
141 98 99 174 159 291 36 306 206 240 242 123 348 338 334 5 245 221 275 341 205 218 255 275 258 235 217 209 219 279 204 54 357 223 217 223 212 188 196 207 216 211 196 182 184 191 190 186 167 157 173 181 170 152 147 151 145 130 137 149 147 150 148 153 153 151 151 150 145 149 147 145 162 137 92 26 3 352 357 350 343 343 341 333 340 346
151 127 153 78 81 93 154 150 164 240 216 74 67 50 53 86 99 102 281 259 223 212 213 235 241 212 196 219 241 234 248 334 316 251 235 221 203 197 188 207 205 181 187 193 181 185 184 183 179 179 175 142 145 155 167 148 152 154 147 152 156 156 164 162 163 157 157 156 161 162 160 175 169 146 110 32 358 351 347 339 344 338 342 328 340 348
145 91 175 121 291 208 209 195 260 311 309 123 128 195 184 168 171 175 228 255 194 196 193 221 235 205 186 222 203 124 220 255 266 254 192 199 201 221 213 183 145 189 190 181 180 172 161 152 162 155 133 147 153 153 161 143 153 155 148 164 166 169 170 174 173 169 167 170 167 164 173 179 158 116 63 14 339 340 337 338 338 343 346 334 349 349
351 255 206 177 195 219 190 281 301 345 284 284 138 47 190 343 225 328 12 278 184 197 185 198 219 208 183 138 139 160 192 168 232 239 176 186 191 197 200 104 231 214 186 141 124 102 135 133 117 125 151 151 160 154 147 153 159 163 169 175 169 178 179 189 186 170 173 176 165 159 157 134 102 101 55 332 333 331 325 325 326 347 342 347 349 350
58 63 110 161 122 146 149 201 225 198 243 262 340 137 165 168 169 225 186 277 265 210 192 188 206 184 169 161 154 163 166 194 233 199 145 168 173 177 174 197 189 194 183 167 163 160 159 156 151 144 144 158 168 170 159 161 168 173 185 180 179 187 189 198 182 169 177 164 144 144 145 128 124 113 120 274 319 321 314 325 336 340 334 355 345 342
66 352 98 82 134 232 139 163 237 201 246 135 209 177 169 170 155 184 297 296 92 195 204 194 209 176 167 156 152 173 174 203 232 194 141 155 140 158 174 164 178 186 185 168 128 122 139 136 136 151 169 182 184 157 165 165 177 189 191 184 178 193 204 200 174 163 146 134 146 151 140 133 136 123 170 277 279 269 311 315 311 351 351 352 350 340
138 77 2 218 176 149 187 284 314 272 253 230 176 156 147 193 239 203 198 86 55 160 196 194 202 150 149 158 171 179 217 50 27 54 96 119 115 145 178 152 173 164 163 169 160 153 153 170 180 179 184 186 166 158 167 172 183 196 195 177 189 207 205 156 139 145 139 149 166 159 146 140 150 153 150 236 265 241 261 330 337 348 358 350 350 343
26 90 43 61 172 179 184 224 262 277 245 131 55 122 187 152 187 202 321 27 324 294 176 187 166 160 167 172 188 190 115 115 79 112 138 145 155 156 161 168 158 143 68 76 133 165 166 168 184 174 178 175 167 166 168 178 192 200 186 186 209 199 136 144 153 151 162 177 166 149 142 148 140 144 156 170 250 238 188 34 345 350 345 342 339 334
178 157 192 180 140 58 59 315 336 297 350 137 133 112 229 212 290 33 289 129 14 171 162 186 174 172 173 185 184 106 143 146 166 158 147 154 153 165 174 175 180 178 173 169 178 196 180 178 191 196 189 170 173 171 177 181 197 199 184 209 200 149 157 159 158 164 171 162 154 151 155 156 159 153 154 187 246 246 131 66 357 360 331 337 325 322
176 210 180 245 196 146 167 175 204 220 109 178 167 178 193 213 75 201 232 351 136 170 177 162 197 180 193 172 172 172 177 161 150 172 155 188 198 157 170 185 186 177 181 194 186 170 178 198 191 184 179 170 175 175 175 183 199 199 198 211 138 148 150 156 158 161 156 150 156 155 161 155 146 139 142 183 233 218 149 36 339 276 332 322 303 308
195 208 184 184 175 174 190 215 245 198 182 201 228 333 265 263 110 185 168 317 179 196 190 187 184 175 193 185 176 165 159 207 181 175 183 189 189 191 189 197 196 197 193 187 195 170 178 198 194 186 177 187 180 182 179 192 199 179 210 194 149 163 165 162 161 155 151 158 162 171 160 150 152 148 152 182 239 241 174 171 240 283 228 279 288 302
336 39 117 6 228 264 264 228 164 196 211 237 254 247 257 345 211 178 196 238 223 185 183 188 177 172 177 186 169 204 204 173 183 186 217 207 193 200 187 177 197 200 191 172 173 173 192 194 186 183 197 190 186 183 183 195 200 194 212 153 168 168 163 153 156 169 163 163 174 175 155 159 159 168 168 191 212 235 234 262 250 288 288 259 270 277
224 135 137 229 297 55 268 61 195 231 198 212 226 241 226 238 231 196 223 226 262 181 202 223 190 175 174 171 193 184 187 181 190 200 194 188 203 198 194 199 197 188 184 191 194 153 174 178 188 197 199 205 188 187 189 195 208 212 168 168 167 160 155 164 170 165 162 179 178 153 159 172 181 175 180 201 202 194 211 218 238 251 268 260 279 281
247 175 186 221 161 209 249 233 251 253 258 261 238 238 236 225 217 203 215 182 116 81 226 215 169 169 160 184 199 182 188 184 188 198 192 198 200 187 195 203 195 184 202 193 160 171 173 175 195 192 191 210 195 186 187 194 205 196 169 166 155 149 149 161 170 167 178 176 176 174 178 194 173 182 203 192 227 252 215 207 224 263 270 297 318 321
104 145 220 176 197 270 313 273 251 254 269 243 216 231 239 234 210 205 200 207 196 221 208 197 212 199 184 199 180 183 174 193 199 193 191 190 190 206 207 202 197 193 171 179 184 177 191 186 195 201 195 211 190 178 186 197 198 180 172 169 157 153 160 173 175 179 169 176 178 184 185 191 169 191 203 197 204 236 263 282 268 257 265 229 239 277
130 215 164 105 245 254 221 240 128 158 250 268 223 220 220 216 212 217 179 195 202 210 194 189 205 216 234 258 191 193 196 186 191 189 203 198 198 198 190 195 194 191 195 193 167 186 203 203 195 196 203 212 183 177 191 194 194 183 183 162 161 165 170 169 166 176 183 181 186 185 180 190 186 187 195 212 234 269 245 211 233 247 261 287 220 242
202 196 148 205 175 234 230 230 190 239 276 248 228 224 234 190 171 196 200 202 202 201 178 178 175 190 216 224 217 206 209 193 190 175 195 197 213 197 187 177 175 191 194 177 169 194 201 203 196 199 210 212 175 185 192 195 185 181 182 170 168 175 176 162 172 185 183 180 197 189 183 178 188 180 186 180 196 243 302 311 210 229 246 254 270 294